Location: Sternwarte-Kraichtal
(49.1689°N, 8.6996°E)
Time: 19:25:15
(UTC+02:00)

Vanguard 2 Rocket - Pass Details

Date: 28 May 2022
Orbit: 553 x 3323 km, 32.9° (Epoch: 02 July)

Event Time Altitude Azimuth Distance (km) Brightness Sun altitude
Rises 14:13:35 0° 230° (SW) 7,262 11.9 60.5°
Reaches altitude 10° 14:19:02 10° 223° (SW) 6,276 11.8 60.1°
Maximum altitude 14:36:05 38° 165° (SSE) 3,933 11.1 58.7°
Drops below altitude 10° 14:48:56 10° 105° (ESE) 4,786 10.6 57.5°
Sets 14:52:24 0° 98° (E) 5,443 10.7 57.1°
